Flag for Central African Republic Weather past 2 weeks in Bangui, Central African Republic

Now
86 °F

Clear.


Feels Like: 88 °F
Forecast: 73 / 96 °F
Wind: 2 mph from Northwest

Location: Bangui Airport

Current Time: Mar 2, 2015 at 8:11:12 PM

Latest Report: Mar 2, 2015 at 7:00 PM


Visibility: 4 mi

Pressure: 29.74 "Hg

Humidity: 52%

Dew point: 66 °F

Location of BanguiLocation

Historic Weather in Bangui — Graph

°F

Bangui temperature yesterday

Maximum temperature yesterday: 93 °F (at 2:00 PM)
Minimum temperature yesterday: 72 °F (at 6:00 AM)
Average temperature yesterday: 82 °F

Past Weeks' High & Low Weather Summary

 TemperatureHumidityPressure
High100 °F (Feb 17, 2:00 PM)100% (Feb 18, 11:00 PM)30.01 "Hg (Feb 18, 11:00 PM)
Low66 °F (Feb 19, 6:00 AM)30% (Mar 2, 3:00 PM)29.68 "Hg (Feb 17, 3:00 PM)
Average83 °F71%29.81 "Hg
* Reported Feb 15 5:00 PM — Mar 2 5:00 PM, Bangui, Weather by CustomWeather, © 2015

Note: Actual official high and low records may vary slightly from our data, if they occured in-between our weather recording intervals... More about our weather records

Advertising

Bangui weather history for previous 24 hours

 ConditionsComfort  
Time TempWeatherWind HumidityBarometerVisibility
5:00 PM
Mon, Mar 2
93 °FClear.7 mph32%29.71 "Hg4 mi
4:00 PM95 °FClear.5 mph30%29.71 "Hg4 mi
3:00 PM95 °FClear.7 mph30%29.71 "Hg4 mi
2:00 PM97 °FClear.7 mph32%29.74 "Hg4 mi
1:00 PM95 °FClear.7 mph32%29.77 "Hg4 mi
12:00 PM93 °FPartly sunny.7 mph34%29.80 "HgN/A
11:00 AM91 °FPartly sunny.3 mph46%29.86 "HgN/A
10:00 AM88 °FSunny.3 mph59%29.86 "Hg10 mi
9:00 AM82 °FPartly sunny.3 mph70%29.89 "Hg5 mi
8:00 AM77 °FPartly sunny.No wind83%29.86 "HgN/A
7:00 AM72 °FPartly sunny.No wind94%29.86 "HgN/A
6:00 AM72 °FPartly sunny.No wind88%29.83 "HgN/A
5:00 AM72 °FPassing clouds.No wind94%29.80 "HgN/A
4:00 AM73 °FPassing clouds.No wind89%29.80 "HgN/A
3:00 AM73 °FClear.No wind89%29.80 "Hg10 mi
12:00 AM77 °FClear.No wind83%29.80 "Hg10 mi
11:00 PM
Sun, Mar 1
77 °FClear.No wind79%29.83 "Hg10 mi
10:00 PM79 °FClear.No wind74%29.83 "Hg10 mi
9:00 PM81 °FClear.2 mph70%29.80 "Hg10 mi
8:00 PM81 °FClear.5 mph66%29.80 "Hg10 mi
Weather by CustomWeather, © 2015

See weather overviewHow to use our weather pages